sat.trackr.live / text

‹ back to catalog

YAOGAN-30 04B

NORAD 43082 · 2017-085B

PAYLOAD ACTIVE UNKNOWN

§ Identity

Operator
Country
PRC
Launch date
2017-12-25
Launch site
XICLF
Launch vehicle
Mass (kg)
RCS (m²)

External: N2YO · Heavens-Above · Gunter

§ Orbital elements

Epoch: 2026-09-08T17:55:40.811232Z

Period
95.81 min
Inclination
34.9960°
Eccentricity
0.0005069
Mean motion
15.02985424 rev/d
Perigee alt
554.2 km
Apogee alt
561.2 km
Semi-major
6,935.8 km
B*
1.3969e-4
RAAN
0.7126°
Arg perigee
348.1589°
Mean anomaly
11.8999°
Rev number
47,527

§ Raw data

YAOGAN-30 04B1 43082U 17085B   26251.74700013  .00001888  00000+0  13969-3 0  99912 43082  34.9960   0.7126 0005069 348.1589  11.8999 15.02985424475276

JSON: /api/v1/satellites/43082 · /tle

For live sub-satellite position, see the globe view (requires WebGL).

§ Visibility from observer

Set your observer location to see the next 7 days of passes ≥ 10°. The values pass through the URL so the page stays shareable.

No JS? Fill the form by hand. The geolocation button needs JavaScript.